New York, NY

8:07 AM EST on February 08, 2016 (GMT -0500)
Central Park

Weather History for KNYC - July, 2014

Change the Weather History Date:

Tuesday, July 22, 2014

  Actual Average Record
Temperature  
Mean Temperature 79 °F 77 °F  
Max Temperature 86 °F 84 °F 104 °F (2011)
Min Temperature 71 °F 69 °F 55 °F (1873)
Degree Days  
Heating Degree Days 0 0  
Month to date heating degree days 0 0  
Since 1 June heating degree days 0 19  
Since 1 July heating degree days 0 0  
Cooling Degree Days 14 12  
Month to date cooling degree days 262 252  
Year to date cooling degree days 548 533  
Since 1 June cooling degree days 494 464  
Growing Degree Days 28 (Base 50)    
Moisture  
Dew Point 64 °F    
Average Humidity 60    
Maximum Humidity 69    
Minimum Humidity 51    
Precipitation  
Precipitation 0.00 in 0.14 in 1.86 in (1880)
Month to date precipitation 5.19 3.15  
Year to date precipitation 33.61 27.35  
Snow  
Snow 0.00 in 0.00 in 0.00 in (2002)
Month to date snowfall 0.0 0.0  
Since 1 July snowfall 0.0 0.0  
Snow Depth 0.00 in    
Sea Level Pressure  
Sea Level Pressure 30.12 in    
Wind  
Wind Speed 4 mph (SSW)    
Max Wind Speed 12 mph    
Max Gust Speed 20 mph    
Visibility 10 miles    
Events      
T = Trace of Precipitation, MM = Missing Value Source: NWS Daily Summary

Daily Weather History Graph

Daily Weather History Graph

Search for Another Location

Airport or City:

Trip Planner

Search our weather history database for the weather conditions in past years. The results will help you decide how hot, cold, wet, or windy it might be!

Date:

Astronomy

Jul. 22, 2014 Rise Set
Actual Time 5:43 AM EDT 8:21 PM EDT
Civil Twilight 5:11 AM EDT 8:52 PM EDT
Nautical Twilight 4:31 AM EDT 9:32 PM EDT
Astronomical Twilight 3:46 AM EDT 10:16 PM EDT
Moon 2:14 AM EDT (7/22) 4:56 PM EDT (7/22)
Length of Visible Light 15h 41m
Length of Day
14h 37m
Waning Crescent, 16% of the Moon is Illuminated
Jul 22
Waning Crescent
Jul 26
New
Aug 3
First Quarter
Aug 10
Full
Aug 17
Last Quarter

Hourly Weather History & Observations

Time (EDT) Temp. Heat Index Dew Point Humidity Pressure Visibility Wind Dir Wind Speed Gust Speed Precip Events Conditions
12:51 AM 72.0 °F - 61.0 °F 68% 30.16 in 10.0 mi Variable 3.5 mph - N/A   Clear
1:51 AM 72.0 °F - 61.0 °F 68% 30.17 in 10.0 mi WSW 6.9 mph - N/A   Clear
2:51 AM 72.0 °F - 59.0 °F 64% 30.16 in 10.0 mi Variable 4.6 mph - N/A   Clear
3:51 AM 72.0 °F - 60.1 °F 66% 30.16 in 10.0 mi Calm Calm - N/A   Clear
4:51 AM 71.1 °F - 60.1 °F 68% 30.16 in 10.0 mi West 3.5 mph - N/A   Clear
5:51 AM 71.1 °F - 60.1 °F 68% 30.17 in 10.0 mi Variable 4.6 mph - N/A   Clear
6:51 AM 71.1 °F - 61.0 °F 70% 30.18 in 10.0 mi Variable 3.5 mph - N/A   Clear
7:51 AM 73.9 °F - 63.0 °F 68% 30.18 in 10.0 mi Calm Calm - N/A   Clear
8:51 AM 75.9 °F - 64.0 °F 67% 30.17 in 9.0 mi Calm Calm - N/A   Clear
9:51 AM 78.1 °F - 64.0 °F 62% 30.16 in 9.0 mi Calm Calm - N/A   Clear
10:51 AM 80.1 °F 82.1 °F 66.0 °F 62% 30.15 in 9.0 mi Variable 3.5 mph - N/A   Clear
11:51 AM 82.9 °F 85.0 °F 66.0 °F 56% 30.14 in 10.0 mi Variable 5.8 mph - N/A   Partly Cloudy
12:51 PM 84.0 °F 85.8 °F 64.9 °F 53% 30.12 in 10.0 mi Variable 4.6 mph - N/A   Mostly Cloudy
1:51 PM 84.0 °F 86.5 °F 66.9 °F 56% 30.12 in 10.0 mi Calm Calm - N/A   Scattered Clouds
2:51 PM 84.9 °F 87.6 °F 66.9 °F 55% 30.11 in 10.0 mi North - - N/A   Clear
3:51 PM 84.0 °F 86.5 °F 66.9 °F 56% 30.08 in 10.0 mi Variable 4.6 mph - N/A   Partly Cloudy
4:51 PM 82.9 °F 85.4 °F 66.9 °F 58% 30.07 in 10.0 mi South 6.9 mph - N/A   Partly Cloudy
5:51 PM 81.0 °F 83.0 °F 66.0 °F 60% 30.06 in 10.0 mi Calm Calm - N/A   Partly Cloudy
6:51 PM 81.0 °F 83.0 °F 66.0 °F 60% 30.06 in 10.0 mi South 4.6 mph - N/A   Partly Cloudy
7:51 PM 80.1 °F 82.1 °F 66.0 °F 62% 30.06 in 10.0 mi South 4.6 mph - N/A   Clear
8:51 PM 79.0 °F - 66.0 °F 64% 30.06 in 10.0 mi Variable 4.6 mph - N/A   Clear
9:51 PM 78.1 °F - 66.0 °F 66% 30.06 in 10.0 mi Variable 4.6 mph - N/A   Clear
10:51 PM 78.1 °F - 64.0 °F 62% 30.06 in 10.0 mi Variable 4.6 mph - N/A   Clear
11:51 PM 77.0 °F - 63.0 °F 62% 30.05 in 10.0 mi SW 6.9 mph 18.4 mph N/A   Clear